Montgomery, NY

9:09 PM EDT on April 28, 2017 (GMT -0400)
Orange County

Weather History for KMGJ - August, 2013

Change the Weather History Date:

Friday, August 23, 2013

  Actual Average (KSWF) Record (KSWF)
Temperature  
Mean Temperature 70 °F -  
Max Temperature 79 °F 77 °F 91 °F (1976)
Min Temperature 60 °F 58 °F 40 °F (1981)
Cooling Degree Days 5    
Growing Degree Days 20 (Base 50)    
Moisture  
Dew Point 61 °F    
Average Humidity 76    
Maximum Humidity 93    
Minimum Humidity 52    
Precipitation  
Precipitation 0.00 in - - ()
Sea Level Pressure  
Sea Level Pressure 30.00 in    
Wind  
Wind Speed 4 mph (North)    
Max Wind Speed 8 mph    
Max Gust Speed -    
Visibility 10 miles    
Events      
Averages and records for this station are not official NWS values.
T = Trace of Precipitation, MM = Missing Value Source: NWS Daily Summary

Daily Weather History Graph

Daily Weather History Graph

Search for Another Location

Airport or City:

Trip Planner

Search our weather history database for the weather conditions in past years. The results will help you decide how hot, cold, wet, or windy it might be!

Date:

Astronomy

Aug. 23, 2013 Rise Set
Actual Time 6:14 AM EDT 7:44 PM EDT
Civil Twilight 5:45 AM EDT 8:13 PM EDT
Nautical Twilight 5:10 AM EDT 8:48 PM EDT
Astronomical Twilight 4:32 AM EDT 9:25 PM EDT
Moon 8:58 PM EDT (8/23) 9:09 AM EDT (8/23)
Length of Visible Light 14h 28m
Length of Day
13h 29m
Waning Gibbous, 91% of the Moon is Illuminated
Aug 23
Waning Gibbous
Aug 28
Last Quarter
Sep 5
New
Sep 12
First Quarter
Sep 19
Full

Hourly Weather History & Observations

Time (EDT) Temp. Dew Point Humidity Pressure Visibility Wind Dir Wind Speed Gust Speed Precip Events Conditions
12:54 AM 72.0 °F 64.9 °F 78% 29.90 in 10.0 mi WNW 8.1 mph - N/A   Overcast
1:54 AM 72.0 °F 64.9 °F 78% 29.90 in 10.0 mi Calm Calm - N/A   Mostly Cloudy
2:54 AM 70.0 °F 64.9 °F 84% 29.90 in 10.0 mi NW 6.9 mph - N/A   Clear
3:54 AM 66.9 °F 64.0 °F 90% 29.91 in 9.0 mi North 3.5 mph - N/A   Clear
4:54 AM 66.9 °F 63.0 °F 87% 29.92 in 10.0 mi Calm Calm - N/A   Clear
5:54 AM 63.0 °F 61.0 °F 93% 29.93 in 9.0 mi NNW 3.5 mph - N/A   Clear
6:54 AM 64.9 °F 61.0 °F 87% 29.96 in 7.0 mi Calm Calm - N/A   Clear
7:54 AM 66.0 °F 61.0 °F 84% 29.99 in 10.0 mi Calm Calm - N/A   Clear
8:54 AM 69.1 °F 61.0 °F 75% 29.99 in 10.0 mi Calm Calm - N/A   Clear
9:54 AM 73.0 °F 62.1 °F 68% 30.01 in 10.0 mi Calm Calm - N/A   Clear
10:54 AM 75.9 °F 59.0 °F 56% 30.01 in 10.0 mi East 4.6 mph - N/A   Clear
3:54 PM 78.1 °F 59.0 °F 52% 30.00 in 10.0 mi NNE 8.1 mph - N/A   Clear
4:54 PM 78.1 °F 59.0 °F 52% 30.01 in 10.0 mi NE 5.8 mph - N/A   Partly Cloudy
5:54 PM 75.9 °F 59.0 °F 56% 30.01 in 10.0 mi NNE 8.1 mph - N/A   Clear
6:54 PM 73.0 °F 59.0 °F 61% 30.03 in 10.0 mi North 6.9 mph - N/A   Clear
7:54 PM 68.0 °F 59.0 °F 73% 30.06 in 10.0 mi Calm Calm - N/A   Clear
8:54 PM 64.0 °F 59.0 °F 84% 30.09 in 10.0 mi North 4.6 mph - N/A   Clear
9:54 PM 62.1 °F 57.9 °F 86% 30.10 in 10.0 mi Calm Calm - N/A   Clear
10:54 PM 62.1 °F 57.0 °F 84% 30.12 in 10.0 mi Calm Calm - N/A   Partly Cloudy
11:54 PM 60.1 °F 57.0 °F 90% 30.14 in 10.0 mi Calm Calm - N/A   Overcast